User: anonymous   Login
Location: Brno
(49.2000°N, 16.6330°E)
Time: 17:40:25
(UTC+01:00)
Language:

Meteor 1-4 Rocket - Orbit

View from above orbital plane
View from above orbital plane
View from above satellite
View from above satellite

Ground track
Ground track

The orbit data is extracted from the following two-line orbital elements,

1 04394U 70037B   15032.19861519  .00008088  00000-0  33263-3 0  7866
2 04394 081.2473 309.8852 0044917 194.3034 165.6932 15.23066249432538
Epoch (UTC): 01 February 2015 04:46:00
Eccentricity: 0.0044917
inclination: 81.2473°
perigee height: 466 km
apogee height: 527 km
right ascension of ascending node: 309.8852°
argument of perigee: 194.3034°
revolutions per day: 15.23066249
mean anomaly at epoch: 165.6932°
orbit number at epoch: 43253

The dashed part of the orbit path shows where the satellite is in the earth's shadow,  

DLR